Location: Carri�res
(48.9069°N, 2.1792°E)
Time: 20:03:49
(UTC+00:00)

Okean-O - Pass Details

Date: 17 January 2021
Orbit: 638 x 641 km, 98.2° (Epoch: 02 March)

Event Time Altitude Azimuth Distance (km) Brightness Sun altitude
Rises 18:33:40 0° 170° (S) 2,934 6.0 -20.5°
Reaches altitude 10° 18:35:52 10° 172° (S) 2,030 5.2 -20.9°
Maximum altitude 18:40:16 71° 256° (WSW) 681 2.8 -21.6°
Drops below altitude 10° 18:44:44 10° 342° (NNW) 2,047 5.3 -22.3°
Sets 18:46:58 0° 345° (NNW) 2,961 6.2 -22.7°
